When you browse on this site, cookies collect data to enhance your experience and personalize the content and advertising you see.
Visit our Privacy Policy to learn more. By continuing to use the site, you agree to this use of cookies and data.
  • En España
  • Lista de países
  • Para 7 días
  • Temperatura del agua
  • Mapa Satelital
  • El tiempo en el mapa
  • Informadores
  • user-avatar
    Iniciar sesión

    Tiempo cada hora Rawson

    Hoy, 18 Diciembre, Martes

    Tiempo Temperatura Precipitaciones Viento Presión Humedad
    00:00 +22°C° 0 mm 8 mps 761 mmHg 28%
    01:00 +22°C° 0 mm 8 mps 760 mmHg 27%
    02:00 +21°C° 0 mm 7 mps 760 mmHg 29%
    03:00 +21°C° 0 mm 7 mps 759 mmHg 27%
    04:00 +21°C° 0 mm 7 mps 759 mmHg 25%
    05:00 +21°C° 0 mm 6 mps 759 mmHg 23%
    06:00 +22°C° 0 mm 6 mps 759 mmHg 21%
    07:00 +24°C° 0 mm 6 mps 759 mmHg 19%
    08:00 +27°C° 0 mm 6 mps 759 mmHg 17%
    09:00 +28°C° 0 mm 6 mps 758 mmHg 15%
    10:00 +30°C° 0 mm 6 mps 758 mmHg 13%
    11:00 +32°C° 0 mm 6 mps 758 mmHg 12%
    12:00 +33°C° 0 mm 6 mps 757 mmHg 11%
    13:00 +34°C° 0 mm 6 mps 757 mmHg 10%
    14:00 +35°C° 0 mm 6 mps 756 mmHg 9%
    15:00 +36°C° 0 mm 6 mps 755 mmHg 9%
    16:00 +36°C° 0 mm 5 mps 754 mmHg 8%
    17:00 +37°C° 0 mm 5 mps 754 mmHg 8%
    18:00 +36°C° 0 mm 5 mps 753 mmHg 9%
    19:00 +34°C° 0 mm 5 mps 753 mmHg 11%
    20:00 +33°C° 0 mm 4 mps 753 mmHg 13%
    21:00 +32°C° 0 mm 4 mps 753 mmHg 15%
    22:00 +30°C° 0 mm 4 mps 753 mmHg 17%
    23:00 +30°C° 0 mm 4 mps 753 mmHg 19%

    Mañana, 19 Diciembre, Miércoles

    Tiempo Temperatura Precipitaciones Viento Presión Humedad
    00:00 +29°C° 0 mm 5 mps 753 mmHg 21%
    01:00 +29°C° 0 mm 6 mps 753 mmHg 24%
    02:00 +28°C° 0 mm 7 mps 752 mmHg 26%
    03:00 +27°C° 0 mm 7 mps 753 mmHg 29%
    04:00 +26°C° 0 mm 7 mps 753 mmHg 32%
    05:00 +24°C° 0 mm 7 mps 753 mmHg 35%
    06:00 +26°C° 0 mm 7 mps 753 mmHg 33%
    07:00 +26°C° 0 mm 7 mps 753 mmHg 32%
    08:00 +27°C° 0 mm 7 mps 754 mmHg 30%
    09:00 +27°C° 0 mm 7 mps 754 mmHg 30%
    10:00 +28°C° 0 mm 7 mps 754 mmHg 30%
    11:00 +28°C° 0 mm 6 mps 754 mmHg 30%
    12:00 +28°C° 0 mm 7 mps 754 mmHg 32%
    13:00 +28°C° 0 mm 8 mps 754 mmHg 34%
    14:00 +28°C° 0 mm 8 mps 754 mmHg 36%
    15:00 +26°C° 0.1 mm 9 mps 754 mmHg 40%
    16:00 +24°C° 0.1 mm 10 mps 755 mmHg 44%
    17:00 +22°C° 0.1 mm 10 mps 755 mmHg 49%
    18:00 +21°C° 0.5 mm 9 mps 756 mmHg 54%
    19:00 +20°C° 0.5 mm 8 mps 757 mmHg 59%
    20:00 +18°C° 0.5 mm 8 mps 757 mmHg 64%
    21:00 +17°C° 0 mm 8 mps 758 mmHg 66%
    22:00 +17°C° 0 mm 8 mps 758 mmHg 69%
    23:00 +16°C° 0 mm 8 mps 759 mmHg 71%

    Pasado mañana, 20 Diciembre, Jueves

    Tiempo Temperatura Precipitaciones Viento Presión Humedad
    00:00 +16°C° 0 mm 8 mps 759 mmHg 72%
    01:00 +16°C° 0 mm 8 mps 759 mmHg 73%
    02:00 +15°C° 0 mm 8 mps 759 mmHg 74%
    03:00 +15°C° 0 mm 8 mps 759 mmHg 75%
    04:00 +15°C° 0 mm 7 mps 760 mmHg 76%
    05:00 +15°C° 0 mm 7 mps 760 mmHg 77%
    06:00 +15°C° 0 mm 6 mps 760 mmHg 72%
    07:00 +16°C° 0 mm 6 mps 761 mmHg 66%
    08:00 +17°C° 0 mm 5 mps 761 mmHg 61%
    09:00 +19°C° 0 mm 5 mps 761 mmHg 55%
    10:00 +20°C° 0 mm 4 mps 761 mmHg 50%
    11:00 +22°C° 0 mm 4 mps 761 mmHg 44%
    12:00 +22°C° 0 mm 4 mps 760 mmHg 41%
    13:00 +23°C° 0 mm 4 mps 760 mmHg 38%
    14:00 +25°C° 0 mm 4 mps 759 mmHg 35%
    15:00 +25°C° 0 mm 4 mps 759 mmHg 35%
    16:00 +25°C° 0 mm 5 mps 758 mmHg 36%
    17:00 +26°C° 0 mm 6 mps 758 mmHg 36%
    18:00 +24°C° 0 mm 6 mps 757 mmHg 38%
    19:00 +23°C° 0 mm 6 mps 757 mmHg 40%
    20:00 +22°C° 0 mm 7 mps 757 mmHg 42%
    21:00 +22°C° 0 mm 7 mps 757 mmHg 45%
    22:00 +21°C° 0 mm 8 mps 757 mmHg 48%
    23:00 +21°C° 0 mm 8 mps 757 mmHg 51%

    21 Diciembre, Viernes

    Tiempo Temperatura Precipitaciones Viento Presión Humedad
    00:00 +21°C° 0 mm 8 mps 756 mmHg 52%
    01:00 +21°C° 0 mm 8 mps 756 mmHg 52%
    02:00 +21°C° 0 mm 8 mps 756 mmHg 53%
    03:00 +21°C° 0 mm 8 mps 756 mmHg 51%
    04:00 +21°C° 0 mm 7 mps 755 mmHg 48%
    05:00 +22°C° 0 mm 6 mps 755 mmHg 46%
    06:00 +23°C° 0 mm 7 mps 755 mmHg 42%
    07:00 +24°C° 0 mm 7 mps 756 mmHg 39%
    08:00 +26°C° 0 mm 7 mps 756 mmHg 35%
    09:00 +27°C° 0 mm 7 mps 756 mmHg 33%
    10:00 +28°C° 0 mm 6 mps 756 mmHg 30%
    11:00 +29°C° 0 mm 6 mps 756 mmHg 27%
    12:00 +29°C° 0 mm 6 mps 756 mmHg 28%
    13:00 +30°C° 0 mm 6 mps 755 mmHg 29%
    14:00 +30°C° 0 mm 7 mps 755 mmHg 29%
    15:00 +29°C° 0 mm 7 mps 755 mmHg 33%
    16:00 +28°C° 0 mm 7 mps 755 mmHg 38%
    17:00 +27°C° 0 mm 8 mps 755 mmHg 42%
    18:00 +24°C° 0 mm 7 mps 755 mmHg 49%
    19:00 +22°C° 0 mm 7 mps 756 mmHg 57%
    20:00 +20°C° 0 mm 7 mps 756 mmHg 65%
    21:00 +19°C° 0 mm 6 mps 756 mmHg 69%
    22:00 +19°C° 0 mm 5 mps 756 mmHg 73%
    23:00 +18°C° 0 mm 4 mps 757 mmHg 77%

    22 Diciembre, Sábado

    Tiempo Temperatura Precipitaciones Viento Presión Humedad
    00:00 +18°C° 0 mm 3 mps 756 mmHg 76%
    01:00 +18°C° 0 mm 2 mps 756 mmHg 74%
    02:00 +18°C° 0 mm 2 mps 756 mmHg 73%
    03:00 +18°C° 0 mm 2 mps 756 mmHg 72%
    04:00 +19°C° 0 mm 2 mps 756 mmHg 71%
    05:00 +19°C° 0 mm 2 mps 755 mmHg 69%
    06:00 +21°C° 0 mm 3 mps 755 mmHg 61%
    07:00 +24°C° 0 mm 3 mps 755 mmHg 52%
    08:00 +26°C° 0 mm 3 mps 755 mmHg 44%
    09:00 +27°C° 0 mm 3 mps 755 mmHg 38%
    10:00 +29°C° 0 mm 3 mps 755 mmHg 33%
    11:00 +32°C° 0 mm 4 mps 754 mmHg 28%
    12:00 +33°C° 0 mm 4 mps 754 mmHg 25%
    13:00 +34°C° 0 mm 4 mps 754 mmHg 23%
    14:00 +35°C° 0 mm 5 mps 753 mmHg 21%
    15:00 +35°C° 0 mm 5 mps 753 mmHg 19%
    16:00 +36°C° 0 mm 6 mps 753 mmHg 17%
    17:00 +36°C° 0 mm 6 mps 753 mmHg 14%
    18:00 +35°C° 0 mm 6 mps 753 mmHg 15%
    19:00 +34°C° 0 mm 6 mps 753 mmHg 16%
    20:00 +33°C° 0 mm 6 mps 753 mmHg 17%
    21:00 +32°C° 0 mm 6 mps 754 mmHg 21%
    22:00 +30°C° 0 mm 5 mps 754 mmHg 26%
    23:00 +29°C° 0 mm 5 mps 754 mmHg 30%

    23 Diciembre, Domingo

    Tiempo Temperatura Precipitaciones Viento Presión Humedad
    00:00 +28°C° 0 mm 5 mps 754 mmHg 29%
    01:00 +28°C° 0 mm 5 mps 755 mmHg 28%
    02:00 +28°C° 0 mm 5 mps 755 mmHg 27%
    03:00 +27°C° 0 mm 6 mps 755 mmHg 27%
    04:00 +26°C° 0 mm 7 mps 755 mmHg 26%
    05:00 +26°C° 0 mm 8 mps 756 mmHg 26%
    06:00 +26°C° 0 mm 8 mps 756 mmHg 24%
    07:00 +27°C° 0 mm 7 mps 756 mmHg 22%
    08:00 +28°C° 0 mm 7 mps 757 mmHg 20%
    09:00 +29°C° 0 mm 6 mps 757 mmHg 18%
    10:00 +30°C° 0 mm 5 mps 757 mmHg 16%
    11:00 +32°C° 0 mm 4 mps 757 mmHg 14%
    12:00 +33°C° 0 mm 4 mps 757 mmHg 13%
    13:00 +34°C° 0 mm 4 mps 756 mmHg 11%
    14:00 +35°C° 0 mm 5 mps 756 mmHg 10%
    15:00 +35°C° 0 mm 5 mps 755 mmHg 11%
    16:00 +35°C° 0 mm 5 mps 755 mmHg 12%
    17:00 +36°C° 0 mm 6 mps 754 mmHg 13%
    18:00 +35°C° 0 mm 6 mps 754 mmHg 14%
    19:00 +34°C° 0 mm 6 mps 754 mmHg 16%
    20:00 +33°C° 0 mm 7 mps 754 mmHg 18%
    21:00 +30°C° 0 mm 7 mps 755 mmHg 22%
    22:00 +29°C° 0 mm 7 mps 755 mmHg 25%
    23:00 +28°C° 0 mm 8 mps 755 mmHg 29%
    Mostrar más